DW2489 Weather Reports


Display with metric or nautical units.
time (UTC)temp
F
wind
direction
speed
MPH
gust
MPH
rain 1hr
in
rain 24hr
in
rain mn
in
humidity
%
barometer
mb
20260504050457 46 198 0.0 4.0 0.00 0.00 0.00 1009.8
20260504045955 46 198 0.0 4.0 0.00 0.00 0.00 1009.5
20260504045454 46 199 0.0 3.0 0.00 0.00 0.00 1009.5
20260504044851 46 198 0.0 3.0 0.00 0.00 0.00 1009.5
20260504044350 46 174 0.0 4.0 0.00 0.00 0.00 1009.5
20260504043814 46 173 0.0 4.0 0.00 0.00 0.00 1009.5
20260504043312 46 173 0.0 3.0 0.00 0.00 0.00 1009.5
20260504042808 46 173 0.0 3.0 0.00 0.00 0.00 1009.8
20260504042306 45 173 0.0 3.0 0.00 0.00 0.00 1009.8
20260504041805 45 173 0.0 3.0 0.00 0.00 0.00 1009.8
20260504041304 45 173 0.0 3.0 0.00 0.00 0.00 1009.8
20260504040803 45 173 0.0 4.0 0.00 0.00 0.00 1009.8
20260504040301 44 173 0.0 4.0 0.00 0.00 0.00 1009.8
20260504035759 44 173 2.0 4.0 0.00 0.00 0.00 1009.8
20260504035258 43 173 0.0 3.0 0.00 0.00 0.00 1009.8
20260504034725 43 173 0.0 0.0 0.00 0.00 0.00 1009.8
20260504034223 43 173 0.0 0.0 0.00 0.00 0.00 1009.8
20260504033722 42 173 0.0 0.0 0.00 0.00 0.00 1009.8
20260504033149 42 173 0.0 2.0 0.00 0.00 0.00 1009.8
20260504032615 42 173 0.0 2.0 0.00 0.00 0.00 1009.5
20260504032113 42 173 0.0 0.0 0.00 0.00 0.00 1009.5
20260504031611 43 173 0.0 0.0 0.00 0.00 0.00 1009.5
20260504031109 43 173 0.0 0.0 0.00 0.00 0.00 1009.5
20260504030607 43 173 0.0 0.0 0.00 0.00 0.00 1009.5
20260504030106 43 173 0.0 0.0 0.00 0.00 0.00 1009.5
20260504025604 44 173 0.0 0.0 0.00 0.00 0.00 1009.5
20260504025031 44 173 0.0 0.0 0.00 0.00 0.00 1009.5
20260504024530 44 173 0.0 4.0 0.00 0.00 0.00 1009.5
20260504024028 45 173 1.0 4.0 0.00 0.00 0.00 1009.5
20260504023527 45 173 0.0 0.0 0.00 0.00 0.00 1009.5
20260504023025 45 173 0.0 2.0 0.00 0.00 0.00 1009.5
20260504022524 45 173 0.0 4.0 0.00 0.00 0.00 1009.5
20260504021951 45 173 0.0 4.0 0.00 0.00 0.00 1009.5
20260504021450 46 250 0.0 2.0 0.00 0.00 0.00 1009.5
20260504020949 46 250 0.0 2.0 0.00 0.00 0.00 1009.5
20260504020448 47 250 0.0 2.0 0.00 0.00 0.00 1009.5
20260504015916 47 250 0.0 2.0 0.00 0.00 0.00 1009.8
20260504015414 48 250 0.0 2.0 0.00 0.00 0.00 1009.8
20260504014913 48 250 0.0 2.0 0.00 0.00 0.00 1009.8
20260504014412 49 250 0.0 3.0 0.00 0.00 0.00 1009.8
20260504013911 49 250 0.0 4.0 0.00 0.00 0.00 1009.8
20260504013409 49 250 0.0 4.0 0.00 0.00 0.00 1009.8
20260504012908 50 250 1.0 6.0 0.00 0.00 0.00 1009.8
20260504012406 50 303 0.0 10.0 0.00 0.00 0.00 1009.8
20260504011903 50 303 1.0 10.0 0.00 0.00 0.00 1009.5
20260504011402 50 308 0.0 10.0 0.00 0.00 0.00 1009.5
20260504010900 51 261 0.0 12.0 0.00 0.00 0.00 1009.5
20260504010359 51 302 1.0 12.0 0.00 0.00 0.00 1009.5
20260504005827 51 276 5.0 12.0 0.00 0.00 0.00 1009.5
20260504005325 51 256 2.0 15.0 0.00 0.00 0.00 1009.1
20260504004825 51 263 2.0 15.0 0.00 0.00 0.00 1009.1
20260504004324 52 286 6.0 15.0 0.00 0.00 0.00 1009.1
20260504003823 52 277 3.0 15.0 0.00 0.00 0.00 1009.1
20260504003321 52 264 6.0 15.0 0.00 0.00 0.00 1009.1
20260504002749 52 269 4.0 15.0 0.00 0.00 0.00 1009.1
20260504002146 52 302 2.0 19.0 0.00 0.00 0.00 1009.1
20260504001645 52 266 6.0 19.0 0.00 0.00 0.00 1008.8
20260504001144 52 266 4.0 15.0 0.00 0.00 0.00 1008.8
20260504000539 53 273 1.0 15.0 0.00 0.00 0.00 1008.8
20260504000006 53 268 2.0 13.0 0.00 0.00 0.00 1008.8
20260503235502 53 286 3.0 15.0 0.00 0.00 0.00 1008.8
20260503235001 53 286 3.0 15.0 0.00 0.00 0.00 1008.5
20260503234459 53 270 5.0 13.0 0.00 0.00 0.00 1008.5
20260503233958 54 297 3.0 16.0 0.00 0.00 0.00 1008.5
20260503233458 54 287 2.0 16.0 0.00 0.00 0.00 1008.5
20260503232924 54 291 5.0 16.0 0.00 0.00 0.00 1008.1
20260503232423 54 281 6.0 16.0 0.00 0.00 0.00 1008.1
20260503231922 54 306 4.0 16.0 0.00 0.00 0.00 1008.1
20260503231350 55 232 2.0 19.0 0.00 0.00 0.00 1008.1
20260503230847 55 263 4.0 19.0 0.00 0.00 0.00 1008.1
20260503230312 55 267 5.0 19.0 0.00 0.00 0.00 1008.1
20260503225810 55 280 4.0 19.0 0.00 0.00 0.00 1008.1
20260503225309 55 287 9.0 20.0 0.00 0.00 0.00 1008.1
20260503224807 56 314 4.0 22.0 0.00 0.00 0.00 1007.8
20260503224306 56 271 10.0 22.0 0.00 0.00 0.00 1007.8
20260503223801 56 294 10.0 22.0 0.00 0.00 0.00 1007.8
20260503223300 56 296 4.0 26.0 0.00 0.00 0.00 1007.8
20260503222759 57 279 10.0 26.0 0.00 0.00 0.00 1007.8
20260503222258 57 289 5.0 24.0 0.00 0.00 0.00 1007.5
20260503221726 57 259 9.0 24.0 0.00 0.00 0.00 1007.5
20260503221223 57 265 10.0 24.0 0.00 0.00 0.00 1007.5
20260503220722 57 255 9.0 20.0 0.00 0.00 0.00 1007.5
20260503220219 58 272 9.0 20.0 0.00 0.00 0.00 1007.5
20260503215718 58 266 6.0 20.0 0.00 0.00 0.00 1007.5
20260503215216 58 0 0.0 16.0 0.00 0.00 0.00 1007.5
20260503214714 58 266 6.0 15.0 0.00 0.00 0.00 1007.5
20260503214141 58 217 7.0 19.0 0.00 0.00 0.00 1007.5
20260503213639 58 273 5.0 25.0 0.00 0.00 0.00 1007.5
20260503213138 58 280 3.0 25.0 0.00 0.00 0.00 1007.5
20260503212637 58 267 8.0 22.0 0.00 0.00 0.00 1007.5
20260503212136 58 284 7.0 22.0 0.00 0.00 0.00 1007.5
20260503211634 58 249 7.0 22.0 0.00 0.00 0.00 1007.5
20260503211133 57 252 8.0 15.0 0.00 0.00 0.00 1007.5
20260503210632 57 295 4.0 15.0 0.00 0.00 0.00 1007.5
20260503210130 57 251 8.0 15.0 0.00 0.00 0.00 1007.5
20260503205627 57 265 3.0 13.0 0.00 0.00 0.00 1007.5
20260503205125 57 275 3.0 13.0 0.00 0.00 0.00 1007.8
20260503204624 57 290 4.0 13.0 0.00 0.00 0.00 1007.8
20260503204123 57 305 5.0 12.0 0.00 0.00 0.00 1007.8
20260503203621 56 264 1.0 7.0 0.00 0.00 0.00 1007.8
20260503203121 55 259 4.0 10.0 0.00 0.00 0.00 1007.8
20260503202619 55 1 2.0 10.0 0.00 0.00 0.00 1008.1
20260503202117 55 246 3.0 10.0 0.00 0.00 0.00 1007.8
20260503201616 55 356 3.0 10.0 0.00 0.00 0.00 1008.1
20260503201114 55 309 1.0 10.0 0.00 0.00 0.00 1008.1
20260503200612 55 303 4.0 10.0 0.00 0.00 0.00 1008.1
20260503200111 55 352 4.0 10.0 0.00 0.00 0.00 1008.1
20260503195609 56 331 6.0 12.0 0.00 0.00 0.00 1008.1
20260503195108 55 2 6.0 12.0 0.00 0.00 0.00 1008.1
20260503194535 55 319 5.0 13.0 0.00 0.00 0.00 1008.1
20260503194034 55 283 5.0 13.0 0.00 0.00 0.00 1008.5
20260503193533 55 290 4.0 10.0 0.00 0.00 0.00 1008.5
20260503193032 55 262 2.0 13.0 0.00 0.00 0.00 1008.5
20260503192531 55 295 4.0 18.0 0.00 0.00 0.00 1008.8
20260503192030 54 248 9.0 18.0 0.00 0.00 0.00 1008.8
20260503191527 54 287 5.0 19.0 0.00 0.00 0.00 1008.8
20260503190923 54 12 2.0 19.0 0.00 0.00 0.00 1008.8
20260503190422 54 301 7.0 19.0 0.00 0.00 0.00 1008.8
20260503185919 54 264 11.0 18.0 0.00 0.00 0.00 1008.8
20260503185418 54 313 5.0 15.0 0.00 0.00 0.00 1008.8
20260503184917 54 330 5.0 15.0 0.00 0.00 0.00 1008.8
20260503184415 54 345 3.0 15.0 0.00 0.00 0.00 1009.1
20260503183914 54 299 3.0 15.0 0.00 0.00 0.00 1009.1
20260503183413 54 272 8.0 15.0 0.00 0.00 0.00 1009.1
20260503182912 54 284 2.0 19.0 0.00 0.00 0.00 1009.1
20260503182410 54 360 6.0 19.0 0.00 0.00 0.00 1009.1
20260503181909 53 257 5.0 19.0 0.00 0.00 0.00 1009.1
20260503181408 52 260 7.0 16.0 0.00 0.00 0.00 1009.1
20260503180907 52 287 7.0 16.0 0.00 0.00 0.00 1009.1
20260503180334 52 266 6.0 15.0 0.00 0.00 0.00 1009.1
20260503175832 52 354 3.0 13.0 0.00 0.00 0.00 1009.5
20260503175331 52 241 3.0 15.0 0.00 0.00 0.00 1009.5
20260503174829 52 322 4.0 15.0 0.00 0.00 0.00 1009.1
20260503174328 51 262 2.0 15.0 0.00 0.00 0.00 1009.5
20260503173827 51 269 5.0 15.0 0.00 0.00 0.00 1009.5
20260503173325 52 279 7.0 15.0 0.00 0.00 0.00 1009.5
20260503172824 52 281 5.0 19.0 0.00 0.00 0.00 1009.5
20260503172321 52 358 5.0 19.0 0.00 0.00 0.00 1009.5
20260503171819 52 358 6.0 19.0 0.00 0.00 0.00 1009.5
20260503171318 52 327 4.0 15.0 0.00 0.00 0.00 1009.5
20260503170745 53 304 6.0 22.0 0.00 0.00 0.00 1009.5
20260503170244 53 50 3.0 22.0 0.00 0.00 0.00 1009.5
20260503150800 51 314 5.0 12.0 0.00 0.00 0.00 1010.2
20260503150155 51 272 6.0 15.0 0.00 0.00 0.00 1010.2
20260503140133 51 4 7.0 16.0 0.00 0.00 0.00 1009.8
20260503131008 48 13 3.0 6.0 0.00 0.00 0.00 1009.9
20260503130508 48 16 3.0 9.0 0.00 0.00 0.00 1009.9
20260503110507 40 46 0.0 2.0 0.00 0.00 0.00 1009.4
20260503090506 37 239 0.0 3.0 0.00 0.00 0.00 1009.1
20260503081506 37 272 0.0 2.0 0.00 0.00 0.00 1009.6
20260503081007 37 272 0.0 0.0 0.00 0.00 0.00 1009.6
20260503080506 37 272 0.0 0.0 0.00 0.00 0.00 1009.7
20260503072506 38 269 0.0 3.0 0.00 0.00 0.00 1009.8
20260503072006 38 304 0.0 3.0 0.00 0.00 0.00 1009.8
20260503071536 38 312 0.0 3.0 0.00 0.00 0.00 1009.9
20260503071006 39 312 0.0 4.0 0.00 0.00 0.00 1009.9
20260503070507 39 312 2.0 4.0 0.00 0.00 0.00 1009.9
20260503055005 37 218 0.0 2.0 0.00 0.00 0.00 1010.5
20260503054005 38 212 0.0 0.0 0.00 0.00 0.00 1010.4